Miscellaneous Local Product
Issued by NWS North Platte, NE

Home | Current Version | Previous Version | Text Only | Print | Product List | Glossary On
Versions: 1 2 3 4 5 6 7 8 9 10 11 12 13 14 15 16 17 18 19 20 21 22 23 24 25 26 27 28 29 30 31 32 33 34 35 36 37 38 39 40 41 42 43 44 45 46 47 48 49 50
000
AXUS43 KLBF 260510
MISLBF


WESTERN AND NORTH CENTRAL NEBRASKA HOURLY WEATHER ROUNDUP
NATIONAL WEATHER SERVICE NORTH PLATTE NE
1200 AM CDT SUN OCT 26 2014

***STATIONS NOT REPORTING VARIABLES SUCH AS SKY/WEATHER OR
PRESSURE ARE PROVIDED BY THE NEBRASKA DEPARTMENT OF
ROADS...RAWS...AND APRS NETWORKS...AND ARE NOT UNDER
NATIONAL WEATHER SERVICE QUALITY CONTROL***

...OBSERVATIONS IN AND NEAR THE EASTERN PANHANDLE OF NEBRASKA...

CITY           SKY/WX    TMP DP  RH WIND       PRES   REMARKS
PINE RIDGE     CLEAR     60  42  51 S17G25    29.86F
CHADRON        LGT RAIN  63  41  44 S23       29.83F
ALLIANCE       CLEAR     46  39  76 SE13      29.92F
SIDNEY         CLEAR     49  36  61 S7        29.96F
WHITECLAY        N/A     49  37  63 E10         N/A
RUSHVILLE        N/A     52  43  70 S16         N/A
CRESCENT LAKE    N/A     52  43  71 S8          N/A
LISCO            N/A     52  42  70 E7          N/A
BIG SPRINGS      N/A     53  44  71 CALM        N/A
LEWELLEN         N/A     46  42  86 E3          N/A
$$

...OBSERVATIONS IN NORTH CENTRAL NEBRASKA...

CITY           SKY/WX    TMP DP  RH WIND       PRES   REMARKS
VALENTINE      CLEAR     46  35  65 E3        29.95F
THEDFORD       CLEAR     53  41  64 CALM      29.97F
AINSWORTH      CLEAR     47  37  68 SE8       29.97S
O`NEILL        CLEAR     53  37  54 SE9       29.98F
ORD            CLEAR     42  38  85 CALM      29.97F
BROKEN BOW     CLEAR     54  42  64 E6        29.97F
BROWNLEE         N/A     54  39  57 SE10        N/A
SPRINGVIEW       N/A     44  35  72 CALM        N/A
BREWSTER         N/A     47  40  77 SE6         N/A
ROSE             N/A     54  40  59 E13         N/A
NEWPORT          N/A     43  34  70 E6          N/A
SARGENT          N/A     51  41  69 CALM        N/A
COMSTOCK         N/A     55  43  64 E5          N/A
CHAMBERS         N/A     52  34  50 E7          N/A
$$

...OBSERVATIONS IN SOUTHWEST NEBRASKA AND FAR NORTHEAST COLORADO...

CITY           SKY/WX    TMP DP  RH WIND       PRES   REMARKS
WRAY           FAIR      49  37  61 CALM      29.94F
HOLYOKE        FAIR      52  45  76 E5        29.94F
IMPERIAL       CLEAR     56  49  77 E7        29.93F
OGALLALA       CLEAR     53  47  78 E5        29.95S
NORTH PLATTE   CLEAR     45  41  86 E9        29.95F
MCCOOK         CLEAR     55  51  86 NE9       29.92F
LEXINGTON      CLEAR     55  45  68 E8        29.95F
PAXTON           N/A     52  45  78 CALM        N/A
SUTHERLAND       N/A     48  43  81 E8          N/A
BRADY            N/A     51  42  72 CALM        N/A
GOTHENBURG       N/A     55  42  62 E3          N/A
CALLAWAY         N/A     55  45  68 E8          N/A
$$

...SOME WEATHER OBSERVATIONS FROM AROUND THE REGION...

CITY           SKY/WX    TMP DP  RH WIND       PRES   REMARKS
DENVER         CLEAR     54  27  35 SW15      29.99F
LARAMIE        PTCLDY    42  20  41 SW8       30.08F
CHEYENNE       PTCLDY    48  24  39 CALM      30.03F
SCOTTSBLUFF    CLEAR     48  37  65 E9        29.92F
RAPID CITY     PTCLDY    46  36  68 SE9       29.83F
PIERRE         CLEAR     49  35  58 E13       29.92F
WINNER         FAIR      50  33  52 SE10      29.93F
SIOUX FALLS    CLEAR     43  34  70 E3        30.03F
OMAHA          CLEAR     60  36  40 E13       30.02F
GRAND ISLAND   CLEAR     54  44  69 E8        29.97F
KANSAS CITY    CLEAR     65  50  58 E8        30.00S
WICHITA        CLEAR     65  58  78 S6        29.94S
HAYS           CLEAR     63  52  67 SE7       29.91F
LIBERAL        CLEAR     64  46  52 S14       29.97F
GOODLAND       CLEAR     50  39  66 W3        29.93F
$$



USA.gov is the U.S. government's official web portal to all federal, state and local government web resources and services.